| time (UTC) | temp F | wind direction | speed MPH | gust MPH | rain 1hr in | rain 24hr in | rain mn in | humidity % | barometer mb |
| 20260505011205 | 73 | 184 | 0.0 | 0.0 | 0.00 | 0.00 | 0.00 | 52 | 998.7 |
| 20260505010204 | 74 | 184 | 0.0 | 1.0 | 0.00 | 0.00 | 0.00 | 51 | 998.6 |
| 20260505004703 | 76 | 184 | 1.0 | 3.0 | 0.00 | 0.00 | 0.00 | 51 | 998.4 |
| 20260505004203 | 76 | 185 | 1.0 | 3.0 | 0.00 | 0.00 | 0.00 | 51 | 998.3 |
| 20260505001211 | 77 | 184 | 1.0 | 3.0 | 0.00 | 0.00 | 0.00 | 48 | 998.3 |
| 20260505000704 | 77 | 181 | 2.0 | 5.0 | 0.00 | 0.00 | 0.00 | 48 | 998.1 |
| 20260505000204 | 78 | 169 | 2.0 | 6.0 | 0.00 | 0.00 | 0.00 | 47 | 998.1 |
| 20260504234704 | 79 | 172 | 2.0 | 7.0 | 0.00 | 0.00 | 0.00 | 46 | 998.1 |
| 20260504234204 | 79 | 175 | 3.0 | 7.0 | 0.00 | 0.00 | 0.00 | 45 | 998.1 |
| 20260504233704 | 79 | 191 | 3.0 | 7.0 | 0.00 | 0.00 | 0.00 | 44 | 998.1 |
| 20260504233204 | 79 | 194 | 2.0 | 9.0 | 0.00 | 0.00 | 0.00 | 44 | 998.1 |
| 20260504231704 | 80 | 192 | 3.0 | 10.0 | 0.00 | 0.00 | 0.00 | 42 | 998.0 |
| 20260504230704 | 81 | 185 | 3.0 | 7.0 | 0.00 | 0.00 | 0.00 | 41 | 998.0 |
| 20260504224704 | 81 | 191 | 3.0 | 7.0 | 0.00 | 0.00 | 0.00 | 41 | 998.0 |
| 20260504224203 | 81 | 183 | 3.0 | 7.0 | 0.00 | 0.00 | 0.00 | 42 | 998.0 |
| 20260504223704 | 82 | 209 | 1.0 | 3.0 | 0.00 | 0.00 | 0.00 | 44 | 998.1 |
| 20260504223203 | 82 | 184 | 2.0 | 8.0 | 0.00 | 0.00 | 0.00 | 42 | 998.0 |
| 20260504221204 | 82 | 214 | 3.0 | 9.0 | 0.00 | 0.00 | 0.00 | 41 | 998.0 |
| 20260504220703 | 82 | 202 | 4.0 | 12.0 | 0.00 | 0.00 | 0.00 | 39 | 998.0 |
| 20260504220204 | 83 | 180 | 5.0 | 12.0 | 0.00 | 0.00 | 0.00 | 39 | 998.0 |
| 20260504214703 | 84 | 182 | 5.0 | 9.0 | 0.00 | 0.00 | 0.00 | 38 | 998.2 |
| 20260504081705 | 57 | 70 | 0.0 | 0.0 | 0.00 | 0.00 | 0.00 | 51 | 1003.0 |
| 20260504081204 | 57 | 70 | 0.0 | 0.0 | 0.00 | 0.00 | 0.00 | 52 | 1003.0 |
| 20260504080704 | 58 | 70 | 0.0 | 0.0 | 0.00 | 0.00 | 0.00 | 53 | 1003.0 |
| 20260504080205 | 58 | 70 | 0.0 | 0.0 | 0.00 | 0.00 | 0.00 | 54 | 1003.0 |
| 20260504070205 | 60 | 70 | 1.0 | 3.0 | 0.00 | 0.00 | 0.00 | 59 | 1003.5 |
| 20260504050704 | 64 | 63 | 0.0 | 2.0 | 0.00 | 0.00 | 0.00 | 56 | 1004.3 |
| 20260504050204 | 65 | 63 | 0.0 | 3.0 | 0.00 | 0.00 | 0.00 | 55 | 1004.5 |
| 20260504044705 | 66 | 63 | 2.0 | 3.0 | 0.00 | 0.00 | 0.00 | 55 | 1005.4 |
| 20260504044205 | 66 | 236 | 0.0 | 3.0 | 0.00 | 0.00 | 0.00 | 55 | 1005.6 |
| 20260504043705 | 66 | 193 | 3.0 | 10.0 | 0.00 | 0.00 | 0.00 | 55 | 1005.9 |
| 20260504043205 | 65 | 164 | 4.0 | 13.0 | 0.00 | 0.00 | 0.00 | 55 | 1006.0 |
| 20260504041705 | 64 | 280 | 1.0 | 2.0 | 0.00 | 0.00 | 0.00 | 58 | 1006.3 |
| 20260504041204 | 64 | 58 | 1.0 | 2.0 | 0.00 | 0.00 | 0.00 | 57 | 1005.9 |
| 20260504040704 | 65 | 57 | 0.0 | 3.0 | 0.00 | 0.00 | 0.00 | 56 | 1005.7 |
| 20260504040205 | 65 | 61 | 2.0 | 3.0 | 0.00 | 0.00 | 0.00 | 55 | 1005.6 |
| 20260504034705 | 65 | 68 | 3.0 | 8.0 | 0.00 | 0.00 | 0.00 | 54 | 1005.5 |
| 20260504034204 | 64 | 74 | 6.0 | 10.0 | 0.00 | 0.00 | 0.00 | 56 | 1005.4 |
| 20260504033715 | 63 | 67 | 5.0 | 10.0 | 0.00 | 0.00 | 0.00 | 57 | 1005.4 |
| 20260504031705 | 62 | 34 | 0.0 | 0.0 | 0.00 | 0.00 | 0.00 | 59 | 1006.1 |
| 20260504031205 | 62 | 34 | 0.0 | 0.0 | 0.00 | 0.00 | 0.00 | 59 | 1006.2 |
| 20260504030705 | 62 | 34 | 0.0 | 0.0 | 0.00 | 0.00 | 0.00 | 59 | 1006.0 |
| 20260504030204 | 62 | 34 | 0.0 | 3.0 | 0.00 | 0.00 | 0.00 | 60 | 1005.9 |
| 20260504024705 | 62 | 292 | 0.0 | 0.0 | 0.00 | 0.00 | 0.00 | 60 | 1005.7 |
| 20260504024205 | 63 | 292 | 0.0 | 0.0 | 0.00 | 0.00 | 0.00 | 60 | 1005.6 |
| 20260504023705 | 63 | 292 | 0.0 | 0.0 | 0.00 | 0.00 | 0.00 | 60 | 1005.4 |
| 20260504021705 | 63 | 292 | 0.0 | 0.0 | 0.00 | 0.00 | 0.00 | 58 | 1005.3 |
| 20260504021204 | 64 | 292 | 0.0 | 0.0 | 0.00 | 0.00 | 0.00 | 58 | 1005.2 |
| 20260504020205 | 64 | 292 | 0.0 | 0.0 | 0.00 | 0.00 | 0.00 | 56 | 1005.4 |
| 20260504014704 | 65 | 292 | 0.0 | 0.0 | 0.00 | 0.00 | 0.00 | 54 | 1005.3 |
| 20260504014204 | 66 | 292 | 0.0 | 0.0 | 0.00 | 0.00 | 0.00 | 53 | 1005.3 |
| 20260504013704 | 67 | 292 | 0.0 | 0.0 | 0.00 | 0.00 | 0.00 | 54 | 1005.2 |
| 20260504013204 | 67 | 292 | 0.0 | 2.0 | 0.00 | 0.00 | 0.00 | 52 | 1005.2 |
| 20260504011704 | 70 | 292 | 0.0 | 0.0 | 0.00 | 0.00 | 0.00 | 49 | 1005.3 |